Bluefield, WV

4:14 AM EDT on May 27, 2017 (GMT -0400)
Mercer County

Weather History for KBLF - October, 2011

Change the Weather History Date:

Friday, October 14, 2011

  Actual Average Record
Temperature  
Mean Temperature 56 °F 57 °F  
Max Temperature 62 °F 66 °F 81 °F (1989)
Min Temperature 50 °F 48 °F 26 °F (1988)
Degree Days  
Heating Degree Days 9 9  
Month to date heating degree days 107 102  
Since 1 July heating degree days 175 181  
Cooling Degree Days 0 1  
Month to date cooling degree days 0 14  
Year to date cooling degree days 1096 846  
Growing Degree Days 6 (Base 50)    
Moisture  
Dew Point 45 °F    
Average Humidity 62    
Maximum Humidity 86    
Minimum Humidity 37    
Precipitation  
Precipitation 0.23 in 0.08 in 1.07 in (2014)
Month to date precipitation 1.52 1.17  
Year to date precipitation 35.48 32.70  
Snow  
Snow 0.00 in - - ()
Month to date snowfall 0.0  
Since 1 July snowfall 0.0  
Since 1 September snowfall 0.0  
Snow Depth 0.00 in    
Sea Level Pressure  
Sea Level Pressure 29.66 in    
Wind  
Wind Speed 12 mph (West)    
Max Wind Speed 26 mph    
Max Gust Speed 39 mph    
Visibility 10 miles    
Events Rain    
T = Trace of Precipitation, MM = Missing Value Source: NWS Daily Summary

Daily Weather History Graph

Daily Weather History Graph

Search for Another Location

Airport or City:

Trip Planner

Search our weather history database for the weather conditions in past years. The results will help you decide how hot, cold, wet, or windy it might be!

Date:

Astronomy

Oct. 14, 2011 Rise Set
Actual Time 7:31 AM EDT 6:49 PM EDT
Civil Twilight 7:05 AM EDT 7:15 PM EDT
Nautical Twilight 6:35 AM EDT 7:45 PM EDT
Astronomical Twilight 6:04 AM EDT 8:16 PM EDT
Moon 8:06 PM EDT (10/14) 9:54 AM EDT (10/14)
Length of Visible Light 12h 10m
Length of Day
11h 17m
Waning Gibbous, 94% of the Moon is Illuminated
Oct 14
Waning Gibbous
Oct 19
Last Quarter
Oct 26
New
Nov 2
First Quarter
Nov 10
Full

Hourly Weather History & Observations

Time (EDT) Temp. Dew Point Humidity Pressure Visibility Wind Dir Wind Speed Gust Speed Precip Events Conditions
12:08 AM 57.2 °F 53.6 °F 88% 29.64 in 10.0 mi West 9.2 mph - N/A   Overcast
12:32 AM 57.2 °F 53.6 °F 88% 29.63 in 10.0 mi West 9.2 mph - N/A   Overcast
12:52 AM 57.0 °F 53.1 °F 87% 29.56 in 10.0 mi WSW 5.8 mph - N/A   Overcast
1:21 AM 57.2 °F 53.6 °F 88% 29.62 in 10.0 mi West 6.9 mph - N/A   Overcast
1:52 AM 57.0 °F 53.1 °F 87% 29.56 in 10.0 mi West 8.1 mph - N/A   Overcast
2:36 AM 57.2 °F 53.6 °F 88% 29.62 in 10.0 mi West 9.2 mph - N/A   Overcast
2:52 AM 57.0 °F 53.1 °F 87% 29.54 in 10.0 mi West 6.9 mph - N/A   Overcast
3:11 AM 57.2 °F 53.6 °F 88% 29.61 in 9.0 mi WSW 6.9 mph - 0.00 in Rain Light Rain
3:52 AM 55.9 °F 52.0 °F 87% 29.54 in 7.0 mi West 13.8 mph 20.7 mph 0.12 in Rain Light Rain
4:03 AM 55.4 °F 51.8 °F 88% 29.61 in 9.0 mi West 11.5 mph - 0.02 in Rain Light Rain
4:32 AM 55.4 °F 51.8 °F 88% 29.61 in 10.0 mi West 10.4 mph - 0.03 in Rain Light Rain
4:52 AM 55.0 °F 52.0 °F 89% 29.54 in 10.0 mi West 11.5 mph 18.4 mph 0.03 in   Overcast
5:38 AM 53.6 °F 48.2 °F 82% 29.63 in 10.0 mi WNW 17.3 mph 31.1 mph 0.03 in Rain Light Rain
5:52 AM 54.0 °F 48.9 °F 83% 29.57 in 10.0 mi WNW 11.5 mph 25.3 mph 0.04 in Rain Light Rain
6:34 AM 53.6 °F 48.2 °F 82% 29.66 in 5.0 mi West 16.1 mph 29.9 mph 0.03 in Rain Rain
6:52 AM 53.1 °F 48.0 °F 83% 29.60 in 10.0 mi West 10.4 mph 27.6 mph 0.04 in Rain Light Rain
7:46 AM 53.6 °F 48.2 °F 82% 29.67 in 10.0 mi West 13.8 mph 23.0 mph 0.00 in   Overcast
7:52 AM 53.1 °F 46.9 °F 80% 29.62 in 10.0 mi West 17.3 mph 25.3 mph 0.00 in   Overcast
8:08 AM 51.8 °F 46.4 °F 82% 29.68 in 10.0 mi West 12.7 mph 23.0 mph N/A   Overcast
8:31 AM 53.6 °F 46.4 °F 77% 29.70 in 10.0 mi West 16.1 mph 24.2 mph N/A   Overcast
9:06 AM 51.8 °F 46.4 °F 82% 29.70 in 10.0 mi West 15.0 mph 21.9 mph N/A   Mostly Cloudy
9:52 AM 53.1 °F 45.0 °F 74% 29.65 in 10.0 mi West 18.4 mph 26.5 mph N/A   Mostly Cloudy
10:44 AM 55.4 °F 42.8 °F 63% 29.72 in 10.0 mi WNW 16.1 mph 25.3 mph N/A   Mostly Cloudy
10:52 AM 55.9 °F 44.1 °F 64% 29.67 in 10.0 mi West 12.7 mph 25.3 mph N/A   Mostly Cloudy
12:52 PM 57.9 °F 37.0 °F 46% 29.68 in 10.0 mi WNW 19.6 mph 32.2 mph N/A   Overcast
1:52 PM 57.9 °F 35.1 °F 42% 29.67 in 10.0 mi WNW 16.1 mph 25.3 mph N/A   Mostly Cloudy
3:52 PM 61.0 °F 35.1 °F 38% 29.66 in 10.0 mi WNW 10.4 mph 24.2 mph N/A   Mostly Cloudy
4:52 PM 59.0 °F 34.0 °F 39% 29.68 in 10.0 mi NW 16.1 mph 26.5 mph N/A   Mostly Cloudy
5:52 PM 57.9 °F 35.1 °F 42% 29.70 in 10.0 mi WNW 11.5 mph - N/A   Scattered Clouds
6:52 PM 57.0 °F 33.1 °F 40% 29.72 in 10.0 mi West 12.7 mph 20.7 mph N/A   Clear
7:52 PM 55.0 °F 34.0 °F 45% 29.75 in 10.0 mi West 9.2 mph - N/A   Clear
8:52 PM 54.0 °F 34.0 °F 47% 29.77 in 10.0 mi West 8.1 mph - N/A   Partly Cloudy
9:52 PM 53.1 °F 34.0 °F 48% 29.79 in 10.0 mi West 8.1 mph - N/A   Clear
10:52 PM 52.0 °F 34.0 °F 50% 29.79 in 10.0 mi West 9.2 mph - N/A   Clear
11:52 PM 52.0 °F 34.0 °F 50% 29.80 in 10.0 mi West 9.2 mph - N/A   Clear